Cut Bank, MT

11:03 PM MDT on September 21, 2017 (GMT -0600)
Cut Bank Municipal

Weather History for KCTB - February, 2014

Change the Weather History Date:

Friday, February 28, 2014

  Actual Average Record
Temperature  
Mean Temperature -3 °F 26 °F  
Max Temperature 10 °F 38 °F 66 °F (1992)
Min Temperature -17 °F 15 °F -25 °F (1911)
Degree Days  
Heating Degree Days 68 39  
Month to date heating degree days 1498 1143  
Since 1 July heating degree days 6206 6060  
Cooling Degree Days 0 0  
Month to date cooling degree days 0 0  
Year to date cooling degree days 0 0  
Moisture  
Dew Point -9 °F    
Average Humidity 70    
Maximum Humidity 83    
Minimum Humidity 56    
Precipitation  
Precipitation T in 0.01 in 0.27 in (1980)
Month to date precipitation 0.15 0.21  
Year to date precipitation 0.97 0.41  
Snow  
Snow 0.00 in - - ()
Snow Depth 5.00 in    
Sea Level Pressure  
Sea Level Pressure 30.21 in    
Wind  
Wind Speed 12 mph (North)    
Max Wind Speed 21 mph    
Max Gust Speed 26 mph    
Visibility 6 miles    
Events Snow    
T = Trace of Precipitation, MM = Missing Value Source: NWS Daily Summary

Daily Weather History Graph

Daily Weather History Graph

Search for Another Location

Airport or City:

Trip Planner

Search our weather history database for the weather conditions in past years. The results will help you decide how hot, cold, wet, or windy it might be!

Date:

Astronomy

Feb. 28, 2014 Rise Set
Actual Time 7:12 AM MST 6:11 PM MST
Civil Twilight 6:41 AM MST 6:43 PM MST
Nautical Twilight 6:05 AM MST 7:19 PM MST
Astronomical Twilight 5:28 AM MST 7:56 PM MST
Moon 6:30 AM MST (2/28) 5:55 PM MST (2/28)
Length of Visible Light 12h 02m
Length of Day
10h 58m
Waning Crescent, 0% of the Moon is Illuminated
Feb 28
Waning Crescent
Mar 1
New
Mar 8
First Quarter
Mar 16
Full
Mar 23
Last Quarter

Hourly Weather History & Observations

Time (MST) Temp. Windchill Dew Point Humidity Pressure Visibility Wind Dir Wind Speed Gust Speed Precip Events Conditions
12:09 AM 10.0 °F -6.5 °F 5.0 °F 80% 29.91 in 9.0 mi NNE 15.0 mph - 0.00 in   Overcast
12:21 AM 10.0 °F -7.1 °F 3.9 °F 76% 29.92 in 10.0 mi North 16.1 mph - 0.00 in   Overcast
12:56 AM 9.0 °F -9.5 °F 3.0 °F 77% 30.08 in 10.0 mi North 18.4 mph - 0.00 in   Overcast
1:25 AM 8.1 °F -10.7 °F -0.0 °F 70% 29.94 in 10.0 mi North 18.4 mph - N/A   Overcast
1:56 AM 7.0 °F -12.1 °F -0.0 °F 73% 30.10 in 10.0 mi North 18.4 mph - N/A   Overcast
2:56 AM 7.0 °F -12.1 °F -0.9 °F 70% 30.13 in 10.0 mi North 18.4 mph - N/A   Overcast
3:56 AM 5.0 °F -14.2 °F -0.9 °F 76% 30.16 in 10.0 mi North 17.3 mph - N/A   Overcast
4:56 AM 3.0 °F -16.1 °F -2.9 °F 76% 30.19 in 9.0 mi North 16.1 mph - 0.00 in Snow Light Snow
5:56 AM 1.0 °F -19.9 °F -4.0 °F 79% 30.23 in 2.5 mi NNE 18.4 mph - 0.00 in Snow Light Snow
6:04 AM 1.0 °F -18.0 °F -5.1 °F 75% 30.04 in 2.5 mi NNE 15.0 mph - 0.00 in Snow Light Snow
6:18 AM 1.0 °F -19.3 °F -5.1 °F 75% 30.04 in 1.5 mi North 17.3 mph - 0.00 in Snow Light Snow
6:56 AM -0.0 °F -15.3 °F -5.1 °F 79% 30.25 in 1.8 mi North 9.2 mph - 0.00 in Snow Light Snow
7:49 AM -0.9 °F -16.4 °F -6.0 °F 79% 30.07 in 2.0 mi North 9.2 mph - 0.00 in Snow Light Snow
7:56 AM -0.9 °F -15.3 °F -6.0 °F 79% 30.28 in 2.5 mi North 8.1 mph - 0.00 in Snow Light Snow
8:17 AM -0.9 °F -14.1 °F -6.0 °F 79% 30.08 in 3.0 mi NNE 6.9 mph - 0.00 in Snow Light Snow
8:54 AM -0.4 °F -14.7 °F -7.6 °F 72% 30.08 in 2.0 mi North 8.1 mph - 0.00 in Snow Light Snow
8:56 AM -0.9 °F -16.4 °F -7.1 °F 75% 30.30 in 1.8 mi North 9.2 mph - 0.00 in Snow Light Snow
9:23 AM -0.9 °F -15.3 °F -8.0 °F 72% 30.08 in 2.0 mi North 8.1 mph - 0.00 in Snow Light Snow
9:56 AM -0.9 °F -15.3 °F -8.0 °F 72% 30.30 in 2.5 mi North 8.1 mph - 0.00 in Snow Light Snow
10:42 AM -0.0 °F -14.2 °F -8.0 °F 69% 30.09 in 3.0 mi North 8.1 mph - 0.00 in Snow Light Snow
10:56 AM -0.0 °F -15.3 °F -8.0 °F 69% 30.32 in 3.0 mi North 9.2 mph - 0.00 in Snow Light Snow
11:16 AM -0.0 °F -18.0 °F -8.0 °F 69% 30.10 in 2.5 mi North 12.7 mph - 0.00 in Snow Light Snow
11:26 AM -0.0 °F -16.3 °F -9.9 °F 63% 30.10 in 4.0 mi NNW 10.4 mph - 0.00 in Snow Light Snow
11:56 AM -0.0 °F -15.3 °F -9.0 °F 66% 30.33 in 3.0 mi North 9.2 mph - 0.00 in Snow Light Snow
12:42 PM -0.0 °F -16.3 °F -9.9 °F 63% 30.10 in 4.0 mi North 10.4 mph - 0.00 in Snow Light Snow
12:51 PM -0.4 °F -17.6 °F -11.2 °F 60% 30.10 in 8.0 mi North 11.5 mph - 0.00 in   Overcast
12:56 PM -0.0 °F -17.1 °F -11.9 °F 57% 30.33 in 9.0 mi North 11.5 mph - 0.00 in   Overcast
1:56 PM -0.0 °F -17.1 °F -9.9 °F 63% 30.33 in 5.0 mi North 11.5 mph - 0.00 in   Haze
2:28 PM -0.9 °F -19.9 °F -9.9 °F 66% 30.09 in 4.0 mi North 13.8 mph - 0.00 in Snow Light Snow
2:54 PM -0.4 °F -19.9 °F -13.0 °F 55% 30.09 in 8.0 mi North 15.0 mph - 0.00 in   Overcast
2:56 PM -2.0 °F -21.2 °F -13.0 °F 60% 30.34 in 8.0 mi North 13.8 mph - 0.00 in   Overcast
3:40 PM -2.0 °F -20.5 °F -11.0 °F 66% 30.10 in 3.0 mi North 12.7 mph - N/A   Haze
3:53 PM -2.2 °F -20.7 °F -11.2 °F 66% 30.11 in 10.0 mi NNE 12.7 mph - N/A   Overcast
3:56 PM -2.0 °F -21.2 °F -11.9 °F 63% 30.36 in 10.0 mi North 13.8 mph - N/A   Overcast
4:56 PM -2.9 °F -20.8 °F -14.1 °F 59% 30.39 in 10.0 mi North 11.5 mph - N/A   Overcast
5:56 PM -5.1 °F -25.1 °F -15.0 °F 62% 30.42 in 10.0 mi North 13.8 mph - N/A   Overcast
6:56 PM -6.0 °F -24.6 °F -15.0 °F 65% 30.45 in 10.0 mi North 11.5 mph - N/A   Overcast
7:56 PM -8.0 °F -22.5 °F -16.1 °F 68% 30.47 in 10.0 mi North 6.9 mph - N/A   Overcast
8:56 PM -9.0 °F -27.4 °F -14.1 °F 79% 30.50 in 10.0 mi NNE 10.4 mph - N/A   Overcast
9:44 PM -13.0 °F -31.3 °F -18.0 °F 78% 30.23 in 9.0 mi NNE 9.2 mph - N/A   Scattered Clouds
9:56 PM -13.0 °F -32.4 °F -18.0 °F 78% 30.54 in 10.0 mi NNE 10.4 mph - N/A   Scattered Clouds
10:56 PM -16.1 °F -36.2 °F -20.9 °F 79% 30.56 in 10.0 mi NNE 10.4 mph - N/A   Partly Cloudy
11:56 PM -16.1 °F -35.0 °F -20.9 °F 79% 30.57 in 10.0 mi NNE 9.2 mph - N/A   Overcast